Regional Weather Roundup
Issued by NWS

Home | Current Version | Previous Version | Text Only | Print | Product List | Glossary On
Versions: 1 2 3 4 5 6 7 8 9 10 11 12 13 14 15 16 17 18 19 20 21 22 23 24 25 26 27 28 29 30 31 32 33 34 35 36 37 38 39 40 41 42 43 44 45 46 47 48 49 50
000
ASUS43 KLOT 180921
RWRIL

ILLINOIS REGIONAL WEATHER ROUNDUP
NATIONAL WEATHER SERVICE CHICAGO/ROMEOVILLE IL
400 AM CDT SAT APR 18 2015

NOTE: "FAIR" INDICATES FEW OR NO CLOUDS BELOW 12,000 FEET WITH NO
SIGNIFICANT WEATHER AND/OR OBSTRUCTIONS TO VISIBILITY.

* THESE STATIONS ARE NOT UNDER NWS QUALITY CONTROL. THEY ALSO MAY NOT
  REPORT WEATHER SUCH AS PRECIPITATION OR FOG.

ILZ001-002-007-009-015-016-024-181000-
NORTHWEST ILLINOIS

CITY           SKY/WX    TMP DP  RH WIND       PRES   REMARKS
MOLINE         CLEAR     51  45  79 CALM      30.00R
STERLING*      CLEAR     52  45  76 CALM      30.01F
SAVANNA*       PTCLDY    53  49  87 CALM      30.01S
$$

ILZ003-004-008-010-011-017-018-181000-
NORTH CENTRAL ILLINOIS

CITY           SKY/WX    TMP DP  RH WIND       PRES   REMARKS
ROCKFORD       PTCLDY    53  48  83 CALM      30.04S
FREEPORT*      PTCLDY    49  46  86 CALM      30.03F
ROCHELLE*      CLEAR     51  44  78 S5        30.02F
DE KALB*       PTCLDY    52  45  76 S6        30.03S
PERU*          CLEAR     58  49  72 SE3       30.02S
$$

ILZ005-006-012>014-019>023-181000-
NORTHEAST ILLINOIS

CITY           SKY/WX    TMP DP  RH WIND       PRES   REMARKS
CHICAGO-OHARE  MOCLDY    60  47  61 W3        30.00S
CHICAGO-MIDWAY PTCLDY    63  49  60 SW7       30.01S
AURORA         CLEAR     50  44  80 CALM      30.02S
LANSING*       MOCLDY    58  45  62 S3        30.02S
JOLIET*        CLEAR     52  48  88 CALM      30.02S
WAUKEGAN       PTCLDY    55  47  74 W6        30.00S
DUPAGE AIRPORT PTCLDY    55  49  80 CALM      30.01S
KANKAKEE*      CLEAR     53  48  82 CALM      30.03F
WHEELING       PTCLDY    52  46  80 CALM      30.02S
MORRIS*        CLEAR     56  48  72 CALM      29.99S
ROMEOVILLE*    CLEAR     55  48  76 CALM      30.02S
NORTHERLY ISL    N/A     65  47  52 SW5         N/A
$$

LMZ740>746-181000-
SOUTHERN LAKE MICHIGAN

STATION/POSITION SKY/WX   TEMP    WIND        PRES    VSBY  WAVE
                          AIR SEA DIR/SP/G                  HT/PER
                          (F)     (DEG/KT/KT) (MB)    (MI)  (FT/S)
HARRISON CRIB              68     250/ 11/ 14   N/A
BURNHAM HARBOR             65     240/  5/  8   N/A
CALUMET HARBOR             64     210/  5/ 10   N/A
BURNS HARBOR               62     200/  9/ 14 1016.9S
MICHIGAN CITY              64     200/  9/ 10   N/A
MICHIGAN CITY 6N           53 47                N/A           0
$$

ILZ025>027-034>036-040-047-049-050-058-095>099-181000-
WEST-CENTRAL ILLINOIS

CITY           SKY/WX    TMP DP  RH WIND       PRES   REMARKS
QUINCY         MOCLDY    61  53  75 SE7       30.00S
GALESBURG*     PTCLDY    54  50  86 S3        30.01R
MACOMB*        PTCLDY    55  52  88 CALM      30.03S
JACKSONVILLE*  MOCLDY    59  54  84 CALM      30.02R
PITTSFIELD*    MOCLDY    58  52  81 CALM      30.02S
$$

ILZ028>032-037-038-041>044-048-051>054-059>061-181000-
CENTRAL ILLINOIS

CITY           SKY/WX    TMP DP  RH WIND       PRES   REMARKS
PONTIAC        CLEAR     61  53  75 SW3       30.03S
BLOOMINGTON    CLEAR     57  52  84 S7        30.04F
DECATUR        CLEAR     54  50  86 CALM      30.03S
PEORIA         CLEAR     60  52  74 S3        30.02S
LACON*         CLEAR     60  52  73 SE5       30.01S
LINCOLN*       CLEAR     55  49  81 CALM      30.02S
SPRINGFIELD    PTCLDY    58  52  80 E3        30.02S
TAYLORVILLE    CLEAR     55  52  88 CALM      30.02S
$$

ILZ033-039-045-046-055>057-062-063-181000-
EAST-CENTRAL ILLINOIS

CITY           SKY/WX    TMP DP  RH WIND       PRES   REMARKS
CHAMPAIGN      CLEAR     55  48  77 CALM      30.03S
DANVILLE*      CLEAR     52  48  85 CALM      30.01S
RANTOUL*       CLEAR     58  52  79 CALM      30.03S
MATTOON        CLEAR     53  49  86 CALM      30.01F
PARIS*         FAIR      53  51  94 CALM      30.04S
$$

ILZ079-100>102-181000-
SOUTHWEST ILLINOIS

CITY           SKY/WX    TMP DP  RH WIND       PRES   REMARKS
ALTON          PTCLDY    56  55  96 CALM      30.02R FOG
BELLEVILLE     CLEAR     55  55 100 CALM      30.00R FOG
CAHOKIA*       PTCLDY    56  55  97 CALM      30.00S FOG
SPARTA*        PTCLDY    57  55  92 CALM      30.01F
$$

ILZ064>066-069>071-074>076-080>082-084>086-088>090-092>094-181000-
SOUTH-CENTRAL ILLINOIS

CITY           SKY/WX    TMP DP  RH WIND       PRES   REMARKS
CARBONDALE     CLEAR     56  55  97 N6        30.00S FOG
CAIRO*         FOG       58  58 100 CALM      30.00S VSB 1/2
EFFINGHAM*     CLEAR     53  50  91 CALM      30.03F FOG
MARION         CLEAR     57  55  94 CALM      30.01S FOG
MT. VERNON     PTCLDY    52  46  82 CALM      30.02R
CENTRALIA*     PTCLDY    53  51  94 CALM      30.01S FOG
SALEM*         PTCLDY    56  54  91 CALM      30.02S FOG
METROPOLIS*    MOCLDY    58  58 100 CALM      29.99S FOG
$$

ILZ067-068-072-073-078-083-087-091-181000-
SOUTHEAST ILLINOIS

CITY           SKY/WX    TMP DP  RH WIND       PRES   REMARKS
LAWRENCEVILLE  CLEAR     54  52  93 NE5       30.01F
FLORA*         CLEAR     55  54  97 CALM      30.02S FOG
FAIRFIELD*     CLEAR     55  54  96 CALM      30.00S FOG
HARRISBURG*    CLEAR     58  58 100 CALM      30.02R FOG
ROBINSON*      CLEAR     51  50  98 CALM      30.03F FOG
CARMI*         FOG       54  50  89 CALM      30.00S VSB<1/4
$$

ABBREVIATIONS USED IN REMARKS
   TC - TEMPERATURE IN CELSIUS
  WCI - WIND CHILL INDEX
   HX - HEAT INDEX
  VSB - VISIBILITY
$$




USA.gov is the U.S. government's official web portal to all federal, state and local government web resources and services.